Location: Dodgeville, WI 53533, USA
(43.0344°N, 90.0900°W)
Time: 18:39:57
(UTC-05:00)

Tiangong 2 - Visible Passes

Search period start: 15 October 2018 00:00
Search period end: 25 October 2018 00:00
Orbit: 383 x 393 km, 42.8° (Epoch: 15 October)

Date Brightness Start Highest point End Pass type
(mag) Time Alt. Az. Time Alt. Az. Time Alt. Az.
15 Oct 3.8 04:50:22 19° E 04:50:22 19° E 04:51:25 10° E visible
15 Oct 1.9 06:22:40 15° W 06:24:56 39° SSW 06:27:57 10° SE visible
16 Oct 1.8 05:27:15 47° SSE 05:27:15 47° SSE 05:29:50 10° ESE visible
17 Oct 2.5 06:04:11 22° SW 06:04:58 25° SSW 06:07:39 10° SSE visible
18 Oct 3.7 05:08:53 16° SE 05:08:53 16° SE 05:09:45 10° SE visible
19 Oct 3.5 05:45:59 13° S 05:45:59 13° S 05:46:50 10° S visible
